Home   Weather   Dushanbe   Past weeks

Flag for Tajikistan Past Weather in Dushanbe, Tajikistan — Yesterday and Last 2 Weeks

Now
36 °F

Fog.


Feels Like: 33 °F
Forecast: 36 / 54 °F
Wind: 3 mph from Northeast

Location: Dushanbe Airport

Current Time: Jan 19, 2017 at 9:58:55 am

Latest Report: Jan 19, 2017 at 9:00 am


Visibility: 2 mi

Pressure: 30.42 "Hg (27.43 "Hg at 832m altitude)

Humidity: 70%

Dew Point: 27 °F

Location of DushanbeLocation

Past Weather in Dushanbe — Graph

°F

Dushanbe Temperature Yesterday

Maximum temperature yesterday: 46 °F (at 3:00 pm)
Minimum temperature yesterday: 34 °F (at 12:00 am)
Average temperature yesterday: 39 °F

High & Low Weather Summary for the Past Weeks

 TemperatureHumidityPressure
High54 °F (Jan 14, 1:00 pm)100% (Jan 5, 4:00 am)30.42 "Hg (Jan 5, 4:00 am)
Low25 °F (Jan 10, 3:30 am)15% (Jan 10, 12:30 pm)29.98 "Hg (Jan 13, 4:00 pm)
Average36 °F64%30.20 "Hg
* Reported Jan 4 9:00 am — Jan 19 9:00 am, Dushanbe, Weather by CustomWeather, © 2017

Note: Actual official high and low records may vary slightly from our data, if they occured in-between our weather recording intervals... More about our weather records

Advertising

Dushanbe Weather History for the Previous 24 Hours

Scroll right to see more
 ConditionsComfort  
Time TempWeatherWind HumidityBarometerVisibility
9:00 am
Thu, Jan 19
36 °FFog.3 mph70%30.42 "Hg2 mi
8:30 am34 °FFog.3 mph75%30.42 "Hg2 mi
8:00 am30 °FSleet. Ice fog.3 mph80%30.39 "Hg2 mi
7:30 am30 °FIce fog.1 mph80%30.39 "Hg2 mi
7:00 am30 °FPassing clouds.3 mph80%30.39 "Hg4 mi
6:30 am32 °FPassing clouds.3 mph80%30.39 "Hg4 mi
6:00 am28 °FPassing clouds.3 mph80%30.36 "Hg4 mi
5:30 am32 °FPassing clouds.3 mph75%30.36 "Hg6 mi
5:00 am30 °FPassing clouds.1 mph80%30.36 "HgN/A
4:30 am30 °FPassing clouds.No wind80%30.36 "HgN/A
4:00 am30 °FPassing clouds.1 mph86%30.39 "HgN/A
3:30 am32 °FPassing clouds.No wind80%30.39 "HgN/A
3:00 am32 °FPassing clouds.1 mph75%30.39 "HgN/A
2:30 am36 °FPassing clouds.3 mph65%30.36 "HgN/A
2:00 am36 °FPassing clouds.6 mph65%30.36 "HgN/A
1:30 am34 °FPassing clouds.3 mph75%30.36 "Hg6 mi
1:00 am36 °FPassing clouds.3 mph60%30.36 "HgN/A
12:30 am37 °FPassing clouds.6 mph60%30.36 "HgN/A
12:00 am36 °FOvercast.No wind65%30.39 "HgN/A
11:30 pm
Wed, Jan 18
37 °FOvercast.3 mph60%30.36 "HgN/A
11:00 pm37 °FPassing clouds.8 mph60%30.36 "HgN/A
10:30 pm39 °FMostly cloudy.3 mph56%30.36 "HgN/A
10:00 pm37 °FMostly cloudy.No wind65%30.36 "Hg3 mi
9:30 pm39 °FOvercast.3 mph61%30.36 "Hg3 mi
9:00 pm37 °FMostly cloudy.6 mph65%30.36 "Hg4 mi
8:30 pm41 °FMostly cloudy.6 mph49%30.36 "HgN/A
8:00 pm41 °FOvercast.3 mph57%30.36 "Hg4 mi
7:30 pm43 °FOvercast.1 mph46%30.36 "Hg6 mi
7:00 pm41 °FOvercast.3 mph66%30.33 "Hg4 mi
6:30 pm43 °FOvercast.No wind57%30.33 "Hg2 mi
6:00 pm43 °FOvercast.No wind53%30.33 "Hg4 mi
5:30 pm43 °FPartly cloudy.No wind53%30.33 "Hg6 mi
5:00 pm45 °FBroken clouds.1 mph49%30.30 "HgN/A
4:30 pm45 °FScattered clouds.1 mph46%30.30 "HgN/A
4:00 pm46 °FBroken clouds.3 mph43%30.30 "HgN/A
3:30 pm45 °FMore clouds than sun.3 mph46%30.30 "HgN/A
3:00 pm46 °FMore clouds than sun.1 mph43%30.30 "HgN/A
2:30 pm45 °FMore clouds than sun.1 mph46%30.33 "HgN/A
2:00 pm45 °FOvercast.1 mph49%30.33 "Hg4 mi
1:30 pm45 °FOvercast.1 mph49%30.33 "Hg6 mi
1:00 pm45 °FOvercast.1 mph57%30.33 "Hg3 mi
12:30 pm43 °FCloudy.1 mph61%30.36 "Hg3 mi
12:00 pm43 °FBroken clouds.No wind57%30.36 "Hg4 mi
11:30 am41 °FFog.1 mph76%30.39 "Hg2 mi
11:00 am41 °FFog.1 mph76%30.39 "Hg1 mi
10:30 am39 °FFog.No wind81%30.39 "Hg1 mi
10:00 am37 °FSleet. Fog.No wind81%30.39 "Hg1 mi
9:30 am36 °FSleet. Cloudy.No wind87%30.36 "Hg1 mi
9:00 am36 °FChilly.No wind87%30.36 "Hg1 mi
Weather by CustomWeather, © 2017

See weather overviewHow to use our weather pages